#timestamp,LO_Frequency,Hit 
1498251615.8,286046934.7,N
1498251635.6,286046934.2,N
1498251655.4,286046936.9,N
1498251675.3,286046935.9,N
1498251695.1,286046937.9,N
1498251696.0,286046937.9,N
1498251715.8,286046938.3,N
1498251735.7,286046938.8,N
1498251755.5,286046935.7,N
1498251775.3,286046936.1,N
1498251795.2,286046935.8,N
1498251815.9,286046936.5,N
1498251835.7,286046936.7,N
1498251855.5,286046935.9,N
1498251875.4,286046936.1,N
1498251895.2,286046937.9,N
1498251915.0,286046938.4,N
1498251915.9,286046938.4,N
1498251935.8,286046938.5,N
1498251955.6,286046937.9,N
1498251975.4,286046938.7,N
1498251995.3,286046938.0,N
1498252015.1,286046938.5,N
1498252016.0,286046938.5,N
1498252035.8,286046938.0,N
1498252055.7,286046940.1,N
1498252075.5,286046939.9,N
1498252095.3,286046940.4,N
1498252115.2,286046937.7,N
1498252135.9,286046939.9,N
1498252155.7,286046939.8,N
1498252175.5,286046939.5,N
1498252195.4,286046939.6,N
1498252215.2,286046939.2,N
1498252235.0,286046941.5,N
1498252235.9,286046941.5,N
1498252255.8,286046939.3,N
1498252275.6,286046941.3,N
1498252295.4,286046941.2,N
1498252315.3,286046943.2,N
1498252335.1,286046941.2,N
1498252336.0,286046941.2,N
1498252355.8,286046941.3,N
1498252375.7,286046941.0,N
1498252395.5,286046943.4,N
1498252415.3,286046943.9,N
1498252435.1,286046944.7,N
1498252455.9,286046945.1,N
1498252475.7,286046942.4,N
1498252495.5,286046943.5,N
1498252515.4,286046943.5,N
1498252535.2,286046943.2,N
1498252555.0,286046944.8,N
1498252555.9,286046944.8,N
1498252575.8,286046945.0,N
1498252595.6,286046942.3,N
1498252615.4,286046942.9,N
1498252635.3,286046942.9,N
1498252655.1,286046944.5,N
1498252656.0,286046944.5,N
1498252675.8,286046943.8,N
1498252695.7,286046946.8,N
1498252715.5,286046945.9,N
1498252735.3,286046946.3,N
1498252755.1,286046946.1,N
1498252775.9,286046947.9,N
1498252795.7,286046945.7,N
1498252815.5,286046945.5,N
1498252835.4,286046945.6,N
1498252855.2,286046945.7,N
1498252875.0,286046945.7,N
1498252875.9,286046945.7,N
1498252895.8,286046945.7,N
1498252915.6,286046947.8,N
1498252935.4,286046947.3,N
1498252955.3,286046947.1,N
1498252975.1,286046948.1,N
1498252976.0,286046948.1,N
1498252995.8,286046947.1,N
1498253015.6,286046949.7,N
1498253035.5,286046947.0,N
1498253055.3,286046948.2,N
1498253075.1,286046948.4,N
1498253095.9,286046948.0,N
1498253115.7,286046945.3,N
1498253135.5,286046947.4,N
1498253155.4,286046948.5,N
1498253175.2,286046949.2,N
1498253195.0,286046949.4,N
1498253195.9,286046949.4,N
1498253215.8,286046949.0,N
1498253235.6,286046950.7,N
1498253255.4,286046948.6,N
1498253275.2,286046949.1,N
1498253295.1,286046949.1,N
1498253296.0,286046949.1,N
1498253315.8,286046949.5,N
1498253335.6,286046949.0,N
1498253355.5,286046949.4,N
1498253375.3,286046948.9,N
1498253395.1,286046949.3,N
1498253415.9,286046948.6,N
1498253435.7,286046951.4,N
1498253455.5,286046950.4,N
1498253475.4,286046951.2,N
1498253495.2,286046950.6,N
1498253515.0,286046950.5,N
1498253515.9,286046950.5,N
1498253535.8,286046953.0,N
1498253555.6,286046952.4,N
1498253575.4,286046952.3,N
1498253595.3,286046952.4,N
1498253615.1,286046952.0,N
1498253616.0,286046952.0,N
1498253635.8,286046954.3,N
1498253655.6,286046954.2,N
1498253675.5,286046954.4,N
1498253695.3,286046951.7,N
1498253715.1,286046954.5,N
1498253735.9,286046954.6,N
1498253755.7,286046953.6,N
1498253775.5,286046956.0,N
1498253795.4,286046953.7,N
1498253815.2,286046953.4,N
1498253835.0,286046953.3,N
1498253835.9,286046953.3,N
1498253855.8,286046956.3,N
1498253875.6,286046956.2,N
1498253895.4,286046953.5,N
1498253915.2,286046956.3,N
1498253935.1,286046955.1,N
1498253936.0,286046955.1,N
1498253955.8,286046956.7,N
1498253975.6,286046957.0,N
1498253995.5,286046956.8,N
1498254015.3,286046957.7,N
1498254035.1,286046955.7,N
1498254055.9,286046957.7,N
1498254075.7,286046957.7,N
1498254095.5,286046957.1,N
1498254115.4,286046956.9,N
1498254135.2,286046958.3,N
1498254155.0,286046961.2,N
1498254155.9,286046961.2,N
1498254175.8,286046958.1,N
1498254195.6,286046958.6,N
1498254215.4,286046959.0,N
1498254235.2,286046959.2,N
1498254255.1,286046959.9,N
1498254256.0,286046959.9,N
1498254275.8,286046960.7,N
1498254295.6,286046958.7,N
1498254315.5,286046962.8,N
1498254335.3,286046960.2,N
1498254355.1,286046960.1,N
1498254375.9,286046960.4,N
1498254395.7,286046959.9,N
1498254415.5,286046962.7,N
1498254435.4,286046961.3,N
1498254455.2,286046964.0,N
1498254475.0,286046961.7,N
1498254475.9,286046961.7,N
1498254495.8,286046964.1,N
1498254515.6,286046964.2,N
1498254535.4,286046961.8,N
1498254555.2,286046963.9,N
1498254575.1,286046963.8,N
1498254576.0,286046963.8,N
1498254595.8,286046963.8,N
1498254615.6,286046963.5,N
1498254635.5,286046961.3,N
1498254655.3,286046963.6,N
1498254675.1,286046963.3,N
1498254695.9,286046963.3,N
1498254715.7,286046963.3,N
1498254735.5,286046965.2,N
1498254755.4,286046965.0,N
1498254775.2,286046965.9,N
1498254795.0,286046965.1,N
1498254795.9,286046965.1,N
1498254815.8,286046965.4,N
1498254835.6,286046965.1,N
1498254855.4,286046966.8,N
1498254875.2,286046967.0,N
1498254895.1,286046968.5,N
1498254896.0,286046968.5,N
1498254915.8,286046967.7,N
1498254935.6,286046968.0,N
1498254955.5,286046968.4,N
1498254975.3,286046968.1,N
1498254995.1,286046968.5,N
1498255015.9,286046968.6,N
1498255035.7,286046966.1,N
1498255055.5,286046970.3,N
1498255075.4,286046970.0,N
1498255095.2,286046970.3,N
1498255115.0,286046967.8,N
1498255115.9,286046967.8,N
1498255135.8,286046970.6,N
1498255155.6,286046970.5,N
1498255175.4,286046972.0,N
1498255195.2,286046970.6,N
